Regional Weather Roundup
Issued by NWS

Home | Current Version | Previous Version | Text Only | Print | Product List | Glossary On
Versions: 1 2 3 4 5 6 7 8 9 10 11 12 13 14 15 16 17 18 19 20 21 22 23 24 25 26 27 28 29 30 31 32 33 34 35 36 37 38 39 40 41 42 43 44 45 46 47 48 49 50
236
ASUS43 KMPX 111210
RWRMN
WEATHER ROUNDUP FOR MINNESOTA
NATIONAL WEATHER SERVICE TWIN CITIES/CHANHASSEN MN
600 AM CST SUN DEC 11 2016


NOTE: "FAIR" INDICATES FEW OR NO CLOUDS BELOW 12,000 FEET WITH NO
SIGNIFICANT WEATHER AND/OR OBSTRUCTIONS TO VISIBILITY. N/A MEANS
CURRENT SKY AND/OR WEATHER CONDITIONS ARE NOT AVAILABLE.

MNZ060>063-068>070-111300-
   Twin Cities Metro

CITY           SKY/WX    TMP DP  RH WIND       PRES   REMARKS
TWIN CITIES    LGT SNOW  17  13  84 E8        29.99R VSB 3/4 WCI   7
6HR MIN TEMP:  14; 6HR MAX TEMP:  17; 6HR PCP:  0.17;

ST PAUL        SNOW      16  14  92 E5        30.01R VSB 1/2 WCI   9
CRYSTAL        LGT SNOW  16  11  80 E6        29.98R VSB 1   WCI   7
BLAINE         LGT SNOW  18  16  93 E7        29.98R VSB 1   WCI   8
LAKEVILLE      LGT SNOW  14  12  92 E6        29.96S WCI   5
EDEN PRAIRIE   LGT SNOW  17  13  84 E7        29.97R VSB 3/4 WCI   8
6HR MIN TEMP:  14; 6HR MAX TEMP:  17; 6HR PCP:  0.07;

SOUTH ST PAUL  LGT SNOW  17  14  87 E5        29.99R WCI  10
LAKE ELMO      LGT SNOW  18  14  86 E7        29.99S VSB 3/4 WCI   8
$$
MNZ001>005-007-008-013>017-022>024-027-028-111300-
   Northwest Minnesota

CITY           SKY/WX    TMP DP  RH WIND       PRES   REMARKS
BEMIDJI        CLOUDY     1  -2  85 E7        30.03F WCI -11
HALLOCK        CLOUDY     1  -4  78 E9        30.11F WCI -14
ROSEAU         CLOUDY     0  -6  78 E6        30.12F WCI -12
WARROAD        CLOUDY     0  -2  92 E8        30.12S WCI -15
THIEF RVR FALL CLOUDY     1  -3  83 E13       30.05F WCI -17
CROOKSTON      LGT SNOW   5   0  78 E9        30.07S WCI  -9
FOSSTON        LGT SNOW   1  -2  85 E8        30.03S WCI -12
DETROIT LAKES  LGT SNOW   9   7  92 E5        30.00S WCI   0
MOORHEAD       LGT SNOW   9   5  85 N5        30.03S WCI   0
PARK RAPIDS    LGT SNOW   6  -1  73 E8        29.99F VSB 1   WCI  -7
$$
MNZ006-009>011-018-025>026-111300-
   North Central Minnesota

CITY           SKY/WX    TMP DP  RH WIND       PRES   REMARKS
BAUDETTE       CLOUDY    -5 -10  79 E6        30.11F WCI -18
INTL FALLS     CLOUDY    -1  -6  79 E5        30.12F WCI -11
6HR MIN TEMP: -13; 6HR MAX TEMP:  -1;

WASKISH        CLOUDY    -4  -8  84 E5        30.09S WCI -15
BIG FORK       CLOUDY    -6  -9  84 CALM      30.07S
LONGVILLE      LGT SNOW   3   0  85 CALM      30.03S
GRAND RAPIDS   CLOUDY     2  -1  88 VRB3      30.06F
CRANE LAKE     CLOUDY   -17 -20  83 CALM      30.15F
ORR            CLOUDY   -15 -18  84 CALM      30.06F
COOK           CLOUDY   -13 -17  84 CALM      30.08F
$$
MNZ012-019>021-037-111300-
   Northeast Minnesota

CITY           SKY/WX    TMP DP  RH WIND       PRES   REMARKS
DULUTH         CLOUDY    13   6  74 E12       30.03F WCI  -1
6HR MIN TEMP:   3; 6HR MAX TEMP:  13; 6HR PCP: TRACE;

ELY            CLOUDY    -6  -8  92 CALM      30.09F
HIBBING        CLOUDY     1  -3  83 NE5       30.05F WCI  -9
EVELETH        CLOUDY     2  -2  81 NE7       30.06F WCI -10
DULUTH HARBOR  CLOUDY    18  10  73 E15       30.11F WCI   3
TWO HARBORS    CLOUDY    14   9  79 NE3       30.06F
SILVER BAY     FLURRIES  10   7  85 N3        30.07F
GRAND MARAIS     N/A     13   4  67 N7        30.17F WCI   3
G MARAIS ARPRT CLOUDY     1  -4  78 N7        30.06F WCI -11
$$
MNZ029>031-032-039>041-046>048-054>057-064-111300-
   West Central Minnesota

CITY           SKY/WX    TMP DP  RH WIND       PRES   REMARKS
FERGUS FALLS   LGT SNOW  10   7  85 E8        30.03S WCI  -1
WHEATON        LGT SNOW  14  12  92 E6        29.99F WCI   5
MORRIS         LGT SNOW  12  10  92 E14       29.94F WCI  -3
ALEXANDRIA     LGT SNOW  11   8  88 E8        29.96S VSB 3/4 WCI  -1
ELBOW LAKE     LGT SNOW  11   8  88 NE8       29.98R WCI  -1
WADENA         LGT SNOW   7   3  85 NE7       29.98F WCI  -5
GLENWOOD       LGT SNOW  10   9  92 E13       29.95S WCI  -5
APPLETON       LGT SNOW  16  10  79 E10       29.94F WCI   3
BENSON         LGT SNOW  12  10  92 E10       29.93F WCI  -1
ORTONVILLE     LGT SNOW  12   9  85 CALM      29.94F
MADISON        LGT SNOW  16  12  86 NE9       29.94F WCI   4
WILLMAR        LGT SNOW  16  12  86 E12       29.94F VSB 1   WCI   3
$$
MNZ033>034-036-042>043-049>051-058-059-111300-
   Central Minnesota

CITY           SKY/WX    TMP DP  RH WIND       PRES   REMARKS
ST CLOUD       LGT SNOW  13  10  88 E7        29.99F FOG     WCI   3
6HR MIN TEMP:  11; 6HR MAX TEMP:  13; 6HR PCP:  0.15;

PAYNESVILLE    LGT SNOW  13  12  98 NE8       29.97S VSB 1   WCI   1
AITKIN         LGT SNOW  10   3  72 NE7       30.01F WCI   0
PINE RIVER     LGT SNOW   7   3  85 NE5       30.05S WCI  -2
BRAINERD       SNOW       9   6  88 NE7       30.00F VSB 1/2 WCI  -2
LONG PRAIRIE   LGT SNOW  10   9  92 NE9       29.97S VSB 1   WCI  -2
LITTLE FALLS   LGT SNOW  12   9  85 E3        30.00F VSB 1
LITCHFIELD     LGT SNOW  16  12  86 NE8       29.96R WCI   5
BUFFALO        LGT SNOW  15  11  86 NE8       29.99S WCI   4
MAPLE LAKE     LGT SNOW  15  13  91 NE7       29.99S WCI   5
HUTCHINSON     LGT SNOW  16  14  90 NE8       29.95R WCI   5
$$
MNZ037-044-045-052-053-111300-
   East Central Minnesota

CITY           SKY/WX    TMP DP  RH WIND       PRES   REMARKS
PRINCETON      LGT SNOW  14  10  85 NE7       30.00F WCI   4
MORA           LGT SNOW  12   9  85 E7        30.02F WCI   2
CAMBRIDGE      LGT SNOW  16   9  73 NE5       29.99S WCI   9
RUSH CITY      CLOUDY    12  10  92 E5        30.02F WCI   4
MOOSE LAKE     LGT SNOW  10   5  79 E5        30.03F WCI   2
HINCKLEY       LGT SNOW  14  10  85 NE5       30.02F WCI   6
CLOQUET        CLOUDY     9   3  78 E7        30.03F WCI  -3
MCGREGOR       CLOUDY    10   5  79 E8        30.04S WCI  -1
$$
MNZ071>073-080-081-089-090-097-098-111300-
   Southwest Minnesota

CITY           SKY/WX    TMP DP  RH WIND       PRES   REMARKS
MONTEVIDEO     LGT SNOW  14  12  92 SE10      29.94F WCI   1
GRANITE FALLS  LGT SNOW  17  15  90 NE10      29.94F VSB 3/4 WCI   5
CANBY          LGT SNOW  15  13  92 CALM      29.93R
MARSHALL       LGT SNOW  16  12  86 E7        29.90S FOG     WCI   6
REDWOOD FALLS  LGT SNOW  16  12  84 E8        29.91F VSB 3/4 WCI   5
OLIVIA         LGT SNOW  18  14  86 E10       29.92F WCI   6
PIPESTONE      LGT SNOW  19  18  93 E6        29.82S WCI  11
WINDOM         CLOUDY    19  18  93 MISG      29.84F
WORTHINGTON    FLURRIES  20  19  96 E7        29.82F WCI  11
JACKSON        CLOUDY    19  18  93 E8        29.83F WCI   9
TRACY          LGT SNOW  17  15  93 NE7       29.87F WCI   8
SLAYTON        CLOUDY    18  17  95 E7        29.84F WCI   9
$$
MNZ065>067-074>077-082>085-091>093-111300-
   South Central Minnesota

CITY           SKY/WX    TMP DP  RH WIND       PRES   REMARKS
MANKATO        FLURRIES  17  14  88 E10       29.91S WCI   5
NEW ULM        LGT SNOW  16  14  93 E7        29.90F WCI   6
ST JAMES       CLOUDY    18  18 100 NE9       29.88F WCI   6
FAIRMONT       FLURRIES  21  19  92 E5        29.89R WCI  15
GLENCOE        LGT SNOW  17  16  95 NE8       29.94S WCI   7
FARIBAULT      LGT SNOW  18  16  93 NE5       29.95R WCI  11
OWATONNA       FLURRIES  18  14  86 E9        29.92R WCI   6
WASECA         FLURRIES  19  18  93 E9        29.92R WCI   9
ALBERT LEA     CLOUDY    25  21  86 SE12      29.86F WCI  14
$$
MNZ078>079-086>088-094>096-111300-
   Southeast Minnesota

CITY           SKY/WX    TMP DP  RH WIND       PRES   REMARKS
ROCHESTER      LGT SNOW  18  16  92 E12       29.91R FOG     WCI   5
6HR MIN TEMP:  16; 6HR MAX TEMP:  18; 6HR PCP:  0.25;

RED WING       LGT SNOW  18  14  86 E7        29.97S WCI   8
STANTON        LGT SNOW  19  15  85 E8        29.95R WCI   8
DODGE CENTER   LGT SNOW  18  16  93 E12       29.90S WCI   5
WINONA         LGT SNOW  19  18  93 SE7       30.00R WCI  10
AUSTIN         FLURRIES  19  18  93 E12       29.88F WCI   7
PRESTON        CLOUDY    19  16  91 E5        29.92S WCI  12
$$
ABBREVIATIONS USED IN REMARKS
   TC - TEMPERATURES IN CELSIUS
  WCI - WIND CHILL INDEX
   HX - HEAT INDEX
  VSB - VISIBILITY
$$




USA.gov is the U.S. government's official web portal to all federal, state and local government web resources and services.